Regional Weather Roundup
Issued by NWS Nashville, TN

Home | Current Version | Previous Version | Text Only | Print | Product List | Glossary On
Versions: 1 2 3 4 5 6 7 8 9 10 11 12 13 14 15 16 17 18 19 20 21 22 23 24 25 26 27
000
ASUS44 KOHX 231710
RWROHX
MIDDLE TENNESSEE HOURLY WEATHER ROUNDUP
NATIONAL WEATHER SERVICE NASHVILLE TN
1100 AM CST THU FEB 23 2017

NOTE: "FAIR" INDICATES FEW OR NO CLOUDS BELOW 12,000 FEET WITH
NO SIGNIFICANT WEATHER AND/OR OBSTRUCTIONS TO VISIBILITY.

* THESE REPORTS ARE NOT UNDER NWS QUALITY CONTROL AND MAY NOT
  REPORT WEATHER SUCH AS PRECIPITATION AND FOG.


TNZ005>011-023>034-057-059-062>066-078-080-231800
...NORTHERN MIDDLE TENNESSEE...

CITY           SKY/WX    TMP DP  RH WIND       PRES   REMARKS
CLARKSVILLE    CLOUDY    66  57  72 S13       29.82F
CROSSVILLE       N/A     63  53  70 S8G18     29.91F
GALLATIN       CLOUDY    64  57  77 CALM      29.88F
NASHVILLE      PTSUNNY   68  56  65 S14       29.86F
PORTLAND       CLOUDY    66  57  72 S13       29.85F
SMYRNA           N/A     70  58  65 S9G17     29.86F
SPARTA         PTSUNNY   70  57  64 VRB6G15   29.86F
SPRINGFIELD    CLOUDY    64  59  82 S10G20    29.83F
WEST NASHVILLE CLOUDY    64  57  77 S14       29.84F
$$
TNZ056-058-060-061-075>077-079-093>097-231800
...SOUTHERN MIDDLE TENNESSEE...

CITY           SKY/WX    TMP DP  RH WIND       PRES   REMARKS
COLUMBIA       CLOUDY    66  66 100 S8        29.84F
FAYETTEVILLE   CLOUDY    68  57  68 S10       29.88S
MCMINNVILLE    PTSUNNY   72  55  56 SW7       29.87F
SHELBYVILLE    PTSUNNY   72  57  60 S12       29.88F
TULLAHOMA      CLOUDY    64  55  72 S10       29.89F
WINCHESTER     CLOUDY    66  55  68 S8        29.89F
$$


...KEY TO REMARKS...
VSB - VISIBILITY IN MILES
WCI - WIND CHILL INDEX
HX  - HEAT INDEX





USA.gov is the U.S. government's official web portal to all federal, state and local government web resources and services.